Regional Weather Roundup
Issued by NWS Wakefield, VA

Home | Current Version | Previous Version | Text Only | Print | Product List | Glossary Off
Versions: 1 2 3 4 5 6 7 8 9 10 11 12 13 14 15 16 17 18 19 20 21 22 23 24 25 26 27 28 29 30 31 32 33 34 35 36 37 38 39 40 41 42 43 44 45 46 47 48 49 50

000
ASUS41 KAKQ 011010
RWRAKQ

REGIONAL WEATHER ROUNDUP
NATIONAL WEATHER SERVICE WAKEFIELD VA
500 AM EST SUN FEB 01 2015

Note: "fair" indicates few or no clouds below 12,000 feet with no
significant weather and/or obstructions to visibility. * = Denotes
station may not report precipitation (e.g., rain,snow,etc.),
thunder or fog.

VAZ042-051-052>054-056-011100-
NORTHERN VIRGINIA

CITY           SKY/WX    TMP DP  RH WIND       PRES   REMARKS
WASH NATIONAL  CLOUDY    29  20  69 S6        30.28F
DULLES         CLOUDY    24  17  74 CALM      30.25F
FORT BELVOIR   CLOUDY    23  18  81 CALM      30.28F
QUANTICO       CLOUDY    26  17  68 NW5       30.29F
FREDERICKSBRG* PTCLDY    26  19  77 CALM      30.27S
STAFFORD*      MOCLDY    24  17  77 CALM      30.31S
WARRENTON      CLOUDY    27  25  92 CALM      30.25S
CULPEPER*      MOCLDY    27  19  74 CALM      30.27R
MANASSAS*      CLOUDY    23  21  93 CALM      30.26F
LEESBURG*      CLOUDY    28  19  69 CALM      30.25F
WINCHESTER     CLOUDY    30  12  47 CALM      30.22R
FRONT ROYAL*   CLOUDY    27  19  74 CALM      30.22R
LURAY*         CLOUDY    30  21  69 CALM      30.23R
$$

VAZ048-049-060>072-079>083-011100-
CENTRAL AND SOUTH CENTRAL VIRGINIA

CITY           SKY/WX    TMP DP  RH WIND       PRES   REMARKS
RICHMOND       MOCLDY    26  14  60 CALM      30.27S
CHESTERFIELD*  PTSUNNY   23   9  54 CALM      30.28R
PETERSBURG*    MOCLDY    26  22  83 CALM      30.28R
HANOVER        MOCLDY    24  15  68 CALM      30.29R
TAPPAHANNOCK*  MOCLDY    24  16  70 CALM      30.28S
QUINTON*       PTSUNNY   25  17  72 CALM      30.29R
CHARLOTTSVILLE CLOUDY    29  11  47 NE3       30.24S
GORDONSVILLE*  CLOUDY    28  16  61 CALM      30.26R
ORANGE*        CLOUDY    28  21  74 CALM      30.28R
LOUISA*        MOCLDY    28  12  50 CALM      30.24S
BUMPASS*       CLOUDY    26  12  55 CALM      30.25S
FARMVILLE*     CLOUDY    32  20  62 N5        30.24S
CREWE*         CLOUDY    29  17  59 CALM      30.25R
FORT PICKETT*  CLOUDY    31  16  54 CALM      30.25S
CHASE CITY*    CLOUDY    33  24  69 CALM      30.25S
CLARKSVILLE*   CLOUDY    32  19  59 CALM      30.25S
SOUTH HILL*    MOCLDY    31  16  52 CALM      30.32R
LAWRENCEVILLE* PTSUNNY   29  21  70 CALM      30.25S
EMPORIA*       MOCLDY    28  21  74 CALM      30.29R
$$

VAZ088>098-011100-
SOUTHEAST VIRGINIA

CITY           SKY/WX    TMP DP  RH WIND       PRES   REMARKS
NORFOLK        PTCLDY    28  18  66 CALM      30.28R
VIRGINIA BEACH MOCLDY    28  18  66 CALM      30.28R
NORFOLK NAVAL  PTCLDY    30  18  60 CALM      30.30R
WEST POINT*    CLEAR     25  19  78 CALM      30.30S
SALUDA*        FAIR      26  23  86 CALM      30.28S
NEWPORT NEWS   MIX PCPN  26  19  74 CALM      30.29R
LANGLEY AFB    CLOUDY    24  20  83 SW6       30.28R
FORT EUSTIS    MOCLDY    26  20  80 CALM      30.27R
WILLIAMSBURG*    N/A     27  21  80 CALM      30.29R
HR EXEC AP*    FAIR      23  18  80 CALM      30.30R
FRANKLIN*      MOCLDY    27  22  82 CALM      30.28R
WAKEFIELD      PTCLDY    26  19  74 CALM      30.27R
$$

VAZ020-022-025-037-045-011100-
WEST CENTRAL AND SOUTHWEST VIRGINIA

CITY           SKY/WX    TMP DP  RH WIND       PRES   REMARKS
STAUNTON*      CLOUDY    30  22  71 CALM      30.23R
WAYNESBORO*    CLOUDY    35   6  30 SW3       30.20R
HOT SPRINGS VA MOCLDY    28   5  37 W9        30.09S
LYNCHBURG      CLOUDY    33  16  49 CALM      30.24R
DANVILLE       CLOUDY    33  20  58 E3        30.22F
SOUTH BOSTON*  FAIR      30  22  72 E3        30.24F
MARTINSVILLE   CLOUDY    32  20  62 CALM      30.24R
ROANOKE        CLOUDY    35  12  38 NE6       30.22F
BLACKSBURG     CLOUDY    31  17  56 CALM      30.21S
DUBLIN*        CLOUDY    33  19  56 CALM      30.20R
MARION*        CLOUDY    34  11  38 CALM      30.18F
HILLSVILLE*    CLOUDY    34   7  32 N3        30.16S
RICHLANDS*     CLOUDY    32  13  45 NW5       30.13F
WISE*          CLOUDY    32  18  55 SW6       30.15R
ABINGDON*      CLOUDY    36  16  43 CALM      30.16S
$$

MDZ021>025-VAZ099-100-011100-
SOUTHERN MARYLAND AND THE DELMARVA PENINSULA

CITY           SKY/WX    TMP DP  RH WIND       PRES   REMARKS
PATUXENT RIVER PTCLDY    23  14  68 SW3       30.28R
BAY BRIDGE APT   N/A     23  19  86 CALM      30.29R
LEONARDTOWN    PTCLDY    23  12  63 CALM      30.29S
DOVER          CLEAR     18  15  85 S3        30.27S
GEORGETOWN     CLEAR     18  13  80 SW3       30.29R
EASTON         CLEAR     22  18  85 CALM      30.32R
CAMBRIDGE      PTCLDY    23  18  80 CALM      30.28S
SALISBURY      CLEAR     19  12  74 CALM      30.28F
OCEAN CITY     CLEAR     18  13  80 CALM      30.29S
WALLOPS ISLAND PTCLDY    20  14  77 CALM      30.29S
ACCOMACK*      PTCLDY    21  14  73 E3        30.29R
$$

NCZ012>017-030>032-011100-
NORTH CENTRAL AND EASTERN NORTH CAROLINA

CITY           SKY/WX    TMP DP  RH WIND       PRES   REMARKS
ROANOKE RAPIDS FAIR      30  21  69 CALM      30.27R
RALEIGH        CLOUDY    36  17  46 CALM      30.26F
ELIZABETH CITY MOCLDY    31  22  69 SW5       30.28S
AHOSKIE*       PTCLDY    29  22  75 CALM      30.29R
EDENTON*       MOCLDY    38  23  56 SW7       30.28R
CURRITUCK*     MOCLDY    31  23  74 CALM      30.28R
KILL DEVIL HLS MOCLDY    34  27  75 CALM      30.27S
MANTEO         MOCLDY    34  28  80 SW5       30.29S
CAPE HATTERAS  CLEAR     37  28  70 W7        30.30S
TARBORO*       PTSUNNY   37  20  52 SW3       30.29S
GOLDSBORO      CLOUDY    38  25  61 CALM      30.27F
WASHINGTON     MOCLDY    33  21  60 CALM      30.30R
GREENVILLE     MOCLDY    34  21  60 SW3       30.29F
NEW BERN       PTCLDY    35  23  61 SW6       30.32S
WILMINGTON     MOCLDY    36  30  79 CALM      30.32S
$$

VAZ048-011100-
ELSEWHERE

CITY           SKY/WX    TMP DP  RH WIND       PRES   REMARKS
HARRISBURG PA  CLOUDY    18  12  77 CALM      30.23S
BALTIMORE      CLOUDY    22  14  71 CALM      30.26S
ANNAPOLIS      PTCLDY    23  12  62 CALM      30.28R
ANDREWS AFB    CLOUDY    24  16  70 S3        30.25F
PHILADELPHIA   CLOUDY    24  14  65 SW3       30.26S
HENDERSON NC   CLOUDY    32  22  68 CALM      30.25S
GREENSBORO     CLOUDY    37  19  48 SW6       30.20F
ROCKY MOUNT    MOCLDY    35  21  56 S5        30.28S
$$

VAZ100-011100-
MARINE

STATION/POSITION TIME  TEMP    WIND        PRES    WAVE   SWELL
                       AIR SEA DIR/SP/G            HT/PER HT/PER
                 (UTC) (F)     (DEG/KT/KT) (MB)    (FT/S) (FT/S)
BRANDYWINE LGT   1000          290/  7/  8 1025.2S
CAPE MAY NJ      1000   29 33              1024.8R
LEWES DE         1000   26 35  250/  4/  4 1025.2R
15NM E FENWICK I 1000   33 39              1025.1R   2/ 4
OCEAN-CITY-INLET 1000   25 36  260/  3/  3 1025.3R
WACHAPREAGUE VA  1000   27 33   20/  3/  3 1025.3S
THOMAS POINT MD  1000   29 34  230/  4/  4 1026.5R
GOOSES REEF MD   1000   31 33  VRB  4/  4  1024.5S   0
COVE POINT MD    1000   29     240/  3/  3 1025.4R
SOLOMONS ISLAND  1000      35                N/A
BISHOPS HEAD MD  1000   29 31  100/  2/  2 1025.0R
PINEY POINT MD   1000          110/  1/  1   N/A
POTOMAC MD       1000   32 35  330/  2/  2 1024.5R   0
CAMBRIDGE MD     1000   23 33  210/  2/  4 1025.6R
LEWISETTA VA     1000   26 33     CALM     1025.2F
RAPPAHANNOCK LGT 1000           80/  5/  6 1026.0R
STINGRAY PT      1000   35 37   90/  8/  8 1025.8R   1/ 2
YORK RVR RNG VA  1000   34      80/ 12/ 13 1024.7R
YORKTOWN VA      1000   31 38   10/  3/  3 1025.2R
JAMESTOWN VA     1000   29 38   60/  2/  4   N/A     0
DOMINION TERM VA 1000   35     330/  4/  6 1025.3R
KIPTOPEKE VA     1000      41   70/  6/  7   N/A
CHES BAY BRIDGE  1000   35 39   30/  1/  3 1024.9R
CAPE HENRY VA    1000   34      40/  2/  2 1023.9R
CHESAPEAKE LGHT  0900   37      CALM  /  1 1025.7F
WILLOUBY STN VA  1000   35      10/  3/  4 1025.6R
S CRANEY ISL VA  1000           CALM  /  2 1025.3R
CAPE HENRY BUOY  0900      41                N/A     2/ 7
1ST LANDING BUOY 1000   36 38   60/  2/  2 1024.8R   1
CAPE CHARLES BUO 1000      40                N/A     2/ 7   2/ 7
OFFSHORE WE BUOY 1000      43                N/A     3/ 7   2/ 7
64NM E OF VA BCH 1000   42 48  300/  8/ 12 1025.0R   4/ 8   3/ 8
DUCK PIER NC     1000   37 41  220/  8/  9 1024.3S
44100 DUCK FRF   1000      43                N/A     3/ 8   2/11
44056 DUCK FRF   1000      40                N/A     3/ 8
OREGON INLET NC  1000   39 38  230/ 12/ 13 1025.4F
HATTERAS NC      1000   42 40  270/  9/ 12 1026.3R



USA.gov is the U.S. government's official web portal to all federal, state and local government web resources and services.